Location: Godiavel Galaoual
(15.2485°N, 12.6604°W)
Time: 07:03:59
(UTC+00:00)

METEOR M2 - Pass Details

Date: 07 August 2021
Orbit: 818 x 827 km, 98.5° (Epoch: 27 September)

Event Time Altitude Azimuth Distance (km) Brightness Sun altitude
Rises 20:17:39 0° 180° (S) 3,354 ? -14.4°
Reaches altitude 10° 20:20:04 10° 185° (S) 2,422 ? -14.9°
Maximum altitude 20:25:14 48° 259° (W) 1,069 ? -16.1°
Drops below altitude 10° 20:30:23 10° 333° (NNW) 2,422 ? -17.2°
Sets 20:32:49 0° 339° (NNW) 3,354 ? -17.8°
